Tracking 31027 objects as of 19-Jul-2025
HD Live streaming from Space Station
objects crossing your sky now

COSMOS 1823 DEB

Track COSMOS 1823 DEB now!
10-day predictions


NORAD ID: 29357
Int'l Code: 1987-020DY
Perigee: 1,156.6 km
Apogee: 1,496.7 km
Inclination: 73.8 °
Period: 112.0 minutes
Semi major axis: 7697 km
RCS: 0.003 m2 (small)
Launch date: February 20, 1987
Source: Commonwealth of Independent States (former USSR) (CIS)
Launch site: PLESETSK MISSILE AND SPACE COMPLEX (PKMTR)

Note: This is SATELLITE DEBRIS
Your satellite tracking list
FENGYUN 1C DEB
Track 1 satellite(s)




NASA's NSSDC Master Catalog

Two Line Element Set (TLE):
1 29357U 87020DY  25196.39673520  .00000045  00000-0  23631-3 0  9998
2 29357  73.7898 236.3742 0220962 320.8483  49.0904 12.85483266558982
Source of the keplerian elements: AFSPC